Simultaneous Nadir Overpasses (SNOs) Predictions

Prediction of SNOs between FY3D and AQUA Satellite Orbit:

Table of predicted SNOs for the next 14.0 days since TLE Epoch: 4/22/2023
Index Date (FY3D) Time (FY3D) Lat,Lon (FY3D) SZA (FY3D ) Date (AQUA) Time (AQUA) Lat,Lon (AQUA) SZA (AQUA ) Distance(km) Time Diff (sec)
1 04/23/2023 19:02:26 78.16,-122.43 65.97 04/23/2023 19:02:31 78.17,-122.54 65.99 2.55 5
2 04/23/2023 19:52:29 -76.40, 52.90 116.16 04/23/2023 19:51:15 -76.32, 52.51 116.22 13.46 74
3 04/26/2023 08:48:06 -78.32,-149.68 114.68 04/26/2023 08:48:31 -78.32,-149.74 114.68 1.52 25
4 04/26/2023 09:38:39 77.79, 20.49 64.64 04/26/2023 09:37:44 77.80, 20.38 64.67 2.88 55
5 04/28/2023 22:33:47 78.47,-176.97 64.71 04/28/2023 22:34:30 78.47,-176.96 64.69 0.19 43
6 04/28/2023 23:24:18 -77.92, -6.53 116.03 04/28/2023 23:23:42 -77.93, -6.65 116.00 3.07 36
7 05/01/2023 12:19:24 -78.56, 156.16 115.98 05/01/2023 12:20:25 -78.56, 156.12 115.99 1.11 61
8 05/01/2023 13:09:58 78.09, -33.83 63.40 05/01/2023 13:09:39 78.10, -33.90 63.42 1.94 19
9 05/04/2023 02:07:33 81.04, 78.37 71.10 05/04/2023 02:08:46 81.70, 77.74 71.35 74.54 73



Historial Predications of SNOs between FY3D and AQUA
